Location: Unspecified
(50.7693°N, 0.0000°E)
Time: 11:08:52
(UTC+00:00)

Vanguard 1 Rocket - Pass Details

Date: 23 June 2019
Orbit: 651 x 4225 km, 34.3° (Epoch: 16 July)

Event Time Altitude Azimuth Distance (km) Brightness Sun altitude
Rises 18:44:54 0° 248° (WSW) 7,072 12.7 11.6°
Reaches altitude 10° 18:51:00 10° 241° (WSW) 5,431 12.0 10.7°
Maximum altitude 19:02:35 31° 187° (S) 2,723 9.7 9.0°
Drops below altitude 10° 19:09:26 10° 129° (SE) 3,156 9.6 8.1°
Sets 19:11:58 0° 117° (ESE) 3,809 9.9 7.7°
